N4XYZ10105.0MI0SRR 23:50Z
ND2O7009.0F5INin nc23:50Z
KB3MI14070.0K3WWAwattsburg wireless psk23:50Z
F4HOT14165.0HA9RT9+ in the north of france, 73'23:49Z
SV6KRW144139.0DL8FBDkm09kp<eme>jo40 tnx first qso23:49Z
PU2KNM144550.0PU5PAEs5/9+ in gg5523:49Z
YV5MD146580.0YV4BLSfcia. contacto edo vargas23:48Z
KC8QOF7078.0W8MDEjt9 tnx 7323:47Z
K4WLS14206.2HA9RTem74uc<>jn86sr 5/923:47Z
N5VHJ14010.0CE2MVFcw23:47Z
K2ZD50036.0CS5BALG/Bfn21nr<es>im67ah weak > fn2123:47Z
W3TZ14248.0HB9EOU 23:46Z
N1EEQ14206.2HA9RT59+ great sig jozsef "73"23:46Z
K4WLS14248.0HB9EOUem74uc<>jn37kd 5/823:45Z
PY4NY14050.0W1SFRtnx fb qso23:45Z
A71AM14215.9W8MLS 23:44Z
N8ZYA10105.0MI0SRRqrp23:44Z
W9VW7243.0W9IMSspl event indy mtr spdwy 4th r23:44Z
M0ODV14165.0VK3MOin qso swl rpt 5223:43Z
N1EEQ14248.0HB9EOU59+ great sig. "73"23:43Z
RD4CAZ7105.0EI6GBBtnx qso23:42Z
W8MSP14248.0HB9EOU5923:41Z
W3LPL18073.9N7ET/DU7heard in ks23:41Z
KC8QOF7078.0NW5Pjt9tnx 7323:41Z
WJ2R18152.0XR2MINspecial event23:40Z
KP4BD3576.0LU5VVtnx qso pr ! 73! dx23:40Z
LU1JHD7130.0RT6DEtnx 59 in argentina23:39Z
NZ3O14206.2HA9RTtnx 2w qrp qso jozsef23:39Z
YB2TX7009.0F5INtnx mike23:38Z
IZ4IRJ14025.0VE7IG569 tu reginald23:38Z
HI7JJO7231.0HI3APT73s23:36Z
W3LPL14007.2EK4JJheard in nh23:36Z
WX2S18073.9N7ET/DU7weak but steady23:36Z
NK8N14220.0HC8/G8OFQ 23:36Z
YL2GB3787.0OM2WWcq dx na23:36Z
W3TZ14206.3HA9RT 23:36Z
ND2O14248.0HB9EOUin nc23:35Z
N1EEQ14259.0A61AS59+ salem great sig. "73"23:35Z
YV4CEG14310.0WP4PJKwrk, tnx 5923:34Z
HC5F14206.3HA9RT 23:33Z
W8MSP14206.3HA9RT5923:33Z
K5MK14255.0VY0Mna-248 up 523:32Z
EW8AX3576.0LU5VVtnx qso jorge! 73!23:32Z
K4WLS14245.0OE6RLFem74uc<>jn77xg 5/723:32Z
OM5CM144394.0DH8KMjn98df<ms>jo30bw 6sec, 4db23:32Z
HC5F14255.0VY0M 23:31Z
WA6SCW14226.0IT9CWA 23:31Z
G1YFC14186.0K5HCT 23:31Z
KD6CUB14347.0HP4/KM4KZX 23:31Z
YV1DIG18102.0VK3AUQ-27 jt65 fb ! hr 30w 80mdip23:31Z

Options Skimmer version